Location: Guferjoch
(46.7462°N, 8.4506°E)
Time: 23:30:55
(UTC+00:00)

CZ-4B R/B - Pass Details

Date: 14 July 2020
Orbit: 702 x 803 km, 98.9° (Epoch: 14 August)

Event Time Altitude Azimuth Distance (km) Brightness Sun altitude
Rises 02:18:13 0° 8° (N) 3,255 7.9 -12.0°
Reaches altitude 10° 02:20:40 10° 2° (N) 2,308 6.8 -11.8°
Maximum altitude 02:25:23 40° 293° (WNW) 1,091 4.2 -11.3°
Enters shadow 02:29:11 14° 229° (SW) 1,953 5.0 -10.8°
